Location: Czekan�w
(50.3488°N, 18.7344°E)
Time: 19:57:33
(UTC+00:00)

MSX - Pass Details

Date: 17 February 2020
Orbit: 895 x 906 km, 98.8° (Epoch: 05 April)

Event Time Altitude Azimuth Distance (km) Brightness Sun altitude
Rises 03:43:25 0° 10° (N) 3,528 7.1 -21.4°
Reaches altitude 10° 03:45:58 10° 3° (N) 2,582 6.3 -21.0°
Maximum altitude 03:51:13 39° 297° (WNW) 1,328 4.3 -20.2°
Enters shadow 03:52:07 36° 276° (W) 1,379 4.3 -20.0°
